| time (UTC) | temp F | wind direction | speed MPH | gust MPH | rain 1hr in | rain 24hr in | rain mn in | humidity % | barometer mb |
| 20260507023203 | 54 | 0 | 0.0 | 0.0 | 0.00 | 0.44 | 0.00 | 99 | 1013.1 |
| 20260507023014 | 54 | 0 | 0.0 | 0.0 | 0.00 | 0.44 | 0.00 | 99 | 1013.2 |
| 20260507022403 | 54 | 0 | 0.0 | 0.0 | 0.00 | 0.44 | 0.00 | 99 | 1013.4 |
| 20260507022217 | 54 | 0 | 0.0 | 0.0 | 0.00 | 0.44 | 0.00 | 99 | 1013.2 |
| 20260507021603 | 54 | 0 | 0.0 | 0.0 | 0.00 | 0.44 | 0.00 | 99 | 1013.4 |
| 20260507021204 | 54 | 0 | 0.0 | 0.0 | 0.00 | 0.44 | 0.00 | 99 | 1013.4 |
| 20260507020803 | 54 | 0 | 0.0 | 0.0 | 0.00 | 0.44 | 0.00 | 99 | 1013.1 |
| 20260507020404 | 54 | 0 | 0.0 | 0.0 | 0.00 | 0.44 | 0.00 | 99 | 1013.4 |
| 20260507020004 | 54 | 0 | 0.0 | 0.0 | 0.00 | 0.44 | 0.00 | 99 | 1013.2 |
| 20260507015603 | 54 | 0 | 0.0 | 0.0 | 0.00 | 0.44 | 0.00 | 99 | 1013.2 |
| 20260507015418 | 54 | 0 | 0.0 | 0.0 | 0.00 | 0.44 | 0.00 | 99 | 1013.4 |
| 20260507014804 | 54 | 0 | 0.0 | 0.0 | 0.00 | 0.44 | 0.00 | 99 | 1013.3 |
| 20260507014404 | 54 | 0 | 0.0 | 0.0 | 0.00 | 0.44 | 0.00 | 99 | 1013.3 |
| 20260507014003 | 54 | 0 | 0.0 | 0.0 | 0.00 | 0.44 | 0.00 | 99 | 1013.2 |
| 20260507013603 | 54 | 0 | 0.0 | 0.0 | 0.00 | 0.44 | 0.00 | 99 | 1013.2 |
| 20260507013204 | 55 | 0 | 0.0 | 0.0 | 0.00 | 0.44 | 0.00 | 99 | 1013.2 |
| 20260507012804 | 54 | 0 | 0.0 | 0.0 | 0.00 | 0.44 | 0.00 | 99 | 1013.1 |
| 20260507012614 | 54 | 0 | 0.0 | 0.0 | 0.00 | 0.44 | 0.00 | 99 | 1013.1 |
| 20260507012213 | 54 | 0 | 0.0 | 0.0 | 0.00 | 0.44 | 0.00 | 99 | 1013.0 |
| 20260507011603 | 55 | 0 | 0.0 | 0.0 | 0.00 | 0.44 | 0.00 | 99 | 1013.2 |
| 20260507011205 | 55 | 0 | 0.0 | 0.0 | 0.00 | 0.44 | 0.00 | 99 | 1013.1 |
| 20260507010804 | 56 | 0 | 0.0 | 0.0 | 0.00 | 0.44 | 0.00 | 99 | 1012.9 |
| 20260507010403 | 56 | 0 | 0.0 | 0.0 | 0.00 | 0.44 | 0.00 | 99 | 1013.1 |
| 20260507010215 | 56 | 0 | 0.0 | 0.0 | 0.00 | 0.44 | 0.00 | 99 | 1013.0 |
| 20260507005604 | 56 | 0 | 0.0 | 0.0 | 0.00 | 0.44 | 0.00 | 99 | 1013.4 |
| 20260507005203 | 56 | 270 | 0.0 | 2.0 | 0.00 | 0.44 | 0.00 | 99 | 1013.3 |
| 20260507004804 | 56 | 276 | 0.0 | 2.0 | 0.00 | 0.44 | 0.00 | 99 | 1013.1 |
| 20260507004404 | 56 | 275 | 0.0 | 2.0 | 0.00 | 0.44 | 0.00 | 99 | 1013.2 |
| 20260507004004 | 56 | 270 | 0.0 | 2.0 | 0.00 | 0.44 | 0.00 | 99 | 1013.0 |
| 20260507003604 | 55 | 270 | 0.0 | 2.0 | 0.00 | 0.44 | 0.00 | 99 | 1013.2 |
| 20260507003203 | 55 | 270 | 0.0 | 2.0 | 0.00 | 0.44 | 0.00 | 99 | 1013.1 |
| 20260507002803 | 56 | 270 | 0.0 | 2.0 | 0.00 | 0.44 | 0.00 | 99 | 1013.2 |
| 20260507002403 | 56 | 270 | 0.0 | 2.0 | 0.00 | 0.44 | 0.00 | 99 | 1013.4 |
| 20260507002003 | 55 | 0 | 0.0 | 0.0 | 0.00 | 0.44 | 0.00 | 99 | 1013.1 |
| 20260507001603 | 55 | 0 | 0.0 | 0.0 | 0.00 | 0.44 | 0.00 | 99 | 1013.0 |
| 20260507001412 | 55 | 0 | 0.0 | 0.0 | 0.00 | 0.44 | 0.00 | 99 | 1013.0 |
| 20260507000803 | 56 | 0 | 0.0 | 0.0 | 0.00 | 0.44 | 0.00 | 99 | 1013.1 |
| 20260507000405 | 56 | 0 | 0.0 | 0.0 | 0.00 | 0.44 | 0.00 | 99 | 1012.9 |
| 20260507000216 | 56 | 0 | 0.0 | 0.0 | 0.00 | 0.44 | 0.00 | 99 | 1013.0 |
| 20260506235603 | 56 | 0 | 0.0 | 0.0 | 0.00 | 0.44 | 0.00 | 99 | 1013.1 |
| 20260506235204 | 56 | 0 | 0.0 | 0.0 | 0.00 | 0.44 | 0.00 | 99 | 1013.2 |
| 20260506234804 | 56 | 0 | 0.0 | 0.0 | 0.00 | 0.44 | 0.00 | 99 | 1013.2 |
| 20260506234613 | 56 | 0 | 0.0 | 0.0 | 0.00 | 0.44 | 0.00 | 99 | 1012.9 |
| 20260506234004 | 56 | 282 | 0.0 | 2.0 | 0.00 | 0.44 | 0.00 | 99 | 1013.1 |
| 20260506233604 | 57 | 282 | 0.0 | 2.0 | 0.00 | 0.44 | 0.00 | 99 | 1013.2 |
| 20260506233203 | 57 | 337 | 0.0 | 2.0 | 0.00 | 0.44 | 0.00 | 99 | 1013.3 |
| 20260506233016 | 57 | 0 | 0.0 | 0.0 | 0.00 | 0.44 | 0.00 | 99 | 1013.2 |
| 20260506232404 | 57 | 0 | 0.0 | 0.0 | 0.00 | 0.44 | 0.00 | 99 | 1013.1 |
| 20260506232004 | 57 | 0 | 0.0 | 0.0 | 0.00 | 0.44 | 0.00 | 99 | 1013.2 |
| 20260506231604 | 56 | 0 | 0.0 | 0.0 | 0.00 | 0.44 | 0.00 | 99 | 1012.9 |
| 20260506231413 | 56 | 0 | 0.0 | 0.0 | 0.00 | 0.44 | 0.00 | 99 | 1013.1 |
| 20260506230803 | 56 | 0 | 0.0 | 0.0 | 0.00 | 0.44 | 0.00 | 99 | 1013.1 |
| 20260506230403 | 56 | 0 | 0.0 | 0.0 | 0.00 | 0.44 | 0.00 | 99 | 1013.3 |
| 20260506230004 | 57 | 0 | 0.0 | 0.0 | 0.00 | 0.44 | 0.00 | 99 | 1013.1 |
| 20260506225604 | 57 | 0 | 0.0 | 0.0 | 0.00 | 0.44 | 0.00 | 99 | 1013.0 |
| 20260506225203 | 57 | 0 | 0.0 | 0.0 | 0.00 | 0.44 | 0.00 | 99 | 1013.0 |
| 20260506224803 | 57 | 0 | 0.0 | 0.0 | 0.00 | 0.44 | 0.00 | 99 | 1013.1 |
| 20260506224404 | 57 | 0 | 0.0 | 0.0 | 0.00 | 0.44 | 0.00 | 99 | 1012.9 |
| 20260506224004 | 57 | 0 | 0.0 | 0.0 | 0.00 | 0.44 | 0.00 | 99 | 1013.0 |
| 20260506223818 | 57 | 0 | 0.0 | 0.0 | 0.00 | 0.44 | 0.00 | 99 | 1012.9 |
| 20260506223204 | 56 | 0 | 0.0 | 0.0 | 0.00 | 0.44 | 0.00 | 99 | 1013.2 |
| 20260506222805 | 57 | 0 | 0.0 | 0.0 | 0.00 | 0.44 | 0.00 | 99 | 1013.4 |
| 20260506222404 | 57 | 0 | 0.0 | 0.0 | 0.00 | 0.44 | 0.00 | 99 | 1013.2 |
| 20260506222003 | 57 | 0 | 0.0 | 0.0 | 0.00 | 0.44 | 0.00 | 99 | 1013.2 |
| 20260506221603 | 57 | 0 | 0.0 | 0.0 | 0.00 | 0.44 | 0.00 | 99 | 1013.1 |
| 20260506221204 | 57 | 0 | 0.0 | 0.0 | 0.00 | 0.44 | 0.00 | 99 | 1013.2 |
| 20260506220803 | 57 | 0 | 0.0 | 0.0 | 0.00 | 0.44 | 0.00 | 99 | 1013.1 |
| 20260506220405 | 57 | 0 | 0.0 | 0.0 | 0.00 | 0.44 | 0.00 | 99 | 1013.4 |
| 20260506220007 | 57 | 0 | 0.0 | 0.0 | 0.00 | 0.44 | 0.00 | 99 | 1013.2 |
| 20260506215816 | 57 | 0 | 0.0 | 0.0 | 0.00 | 0.44 | 0.44 | 99 | 1013.2 |
| 20260506215204 | 58 | 0 | 0.0 | 0.0 | 0.00 | 0.44 | 0.44 | 99 | 1013.3 |
| 20260506214804 | 58 | 0 | 0.0 | 0.0 | 0.00 | 0.44 | 0.44 | 99 | 1013.0 |
| 20260506214403 | 58 | 337 | 0.0 | 2.0 | 0.00 | 0.44 | 0.44 | 99 | 1013.0 |
| 20260506214214 | 58 | 337 | 0.0 | 2.0 | 0.00 | 0.44 | 0.44 | 99 | 1013.1 |
| 20260506213604 | 59 | 337 | 0.0 | 2.0 | 0.00 | 0.44 | 0.44 | 99 | 1013.0 |
| 20260506213204 | 59 | 337 | 0.0 | 2.0 | 0.00 | 0.44 | 0.44 | 99 | 1012.9 |
| 20260506212805 | 59 | 0 | 0.0 | 0.0 | 0.00 | 0.44 | 0.44 | 99 | 1012.9 |
| 20260506212404 | 59 | 0 | 0.0 | 0.0 | 0.00 | 0.44 | 0.44 | 99 | 1012.9 |
| 20260506212004 | 59 | 0 | 0.0 | 0.0 | 0.00 | 0.44 | 0.44 | 99 | 1013.0 |
| 20260506211815 | 59 | 0 | 0.0 | 0.0 | 0.00 | 0.44 | 0.44 | 99 | 1012.9 |
| 20260506211203 | 59 | 0 | 0.0 | 0.0 | 0.00 | 0.44 | 0.44 | 99 | 1013.0 |
| 20260506210804 | 59 | 0 | 0.0 | 0.0 | 0.00 | 0.44 | 0.44 | 99 | 1012.8 |
| 20260506210403 | 59 | 0 | 0.0 | 0.0 | 0.00 | 0.44 | 0.44 | 99 | 1012.7 |
| 20260506210007 | 60 | 0 | 0.0 | 0.0 | 0.00 | 0.44 | 0.44 | 99 | 1012.8 |
| 20260506205603 | 60 | 337 | 0.0 | 2.0 | 0.00 | 0.44 | 0.44 | 99 | 1013.0 |
| 20260506205203 | 60 | 337 | 0.0 | 2.0 | 0.00 | 0.44 | 0.44 | 99 | 1012.8 |
| 20260506205016 | 60 | 337 | 0.0 | 2.0 | 0.00 | 0.44 | 0.44 | 99 | 1012.7 |
| 20260506204616 | 60 | 360 | 0.0 | 2.0 | 0.00 | 0.44 | 0.44 | 99 | 1012.7 |
| 20260506204004 | 60 | 11 | 0.0 | 2.0 | 0.00 | 0.44 | 0.44 | 99 | 1012.8 |
| 20260506203814 | 60 | 11 | 0.0 | 2.0 | 0.00 | 0.44 | 0.44 | 99 | 1012.8 |
| 20260506203203 | 60 | 360 | 0.0 | 2.0 | 0.00 | 0.44 | 0.44 | 98 | 1012.7 |
| 20260506203023 | 60 | 360 | 0.0 | 2.0 | 0.00 | 0.44 | 0.44 | 98 | 1012.9 |
| 20260506202404 | 60 | 360 | 0.0 | 2.0 | 0.00 | 0.44 | 0.44 | 98 | 1012.7 |
| 20260506202003 | 60 | 360 | 0.0 | 2.0 | 0.00 | 0.44 | 0.44 | 98 | 1012.8 |
| 20260506201604 | 60 | 0 | 0.0 | 0.0 | 0.00 | 0.44 | 0.44 | 98 | 1012.8 |
| 20260506201204 | 61 | 0 | 0.0 | 0.0 | 0.00 | 0.44 | 0.44 | 98 | 1012.6 |
| 20260506200804 | 61 | 22 | 0.0 | 2.0 | 0.00 | 0.44 | 0.44 | 97 | 1012.5 |
| 20260506200413 | 61 | 22 | 0.0 | 2.0 | 0.00 | 0.44 | 0.44 | 97 | 1012.5 |
| 20260506200213 | 61 | 22 | 0.0 | 2.0 | 0.00 | 0.44 | 0.44 | 97 | 1012.6 |
| 20260506195604 | 61 | 11 | 0.0 | 2.0 | 0.00 | 0.44 | 0.44 | 97 | 1012.6 |
| 20260506195203 | 61 | 15 | 1.0 | 2.0 | 0.00 | 0.44 | 0.44 | 97 | 1012.3 |
| 20260506195021 | 61 | 21 | 0.0 | 2.0 | 0.00 | 0.44 | 0.44 | 97 | 1012.6 |
| 20260506194403 | 62 | 23 | 0.0 | 4.0 | 0.00 | 0.44 | 0.44 | 96 | 1012.3 |
| 20260506194215 | 62 | 22 | 1.0 | 4.0 | 0.00 | 0.44 | 0.44 | 96 | 1012.4 |
| 20260506193814 | 62 | 15 | 1.0 | 4.0 | 0.00 | 0.44 | 0.44 | 96 | 1012.3 |
| 20260506193203 | 62 | 351 | 0.0 | 2.0 | 0.00 | 0.44 | 0.44 | 96 | 1012.1 |
| 20260506192803 | 62 | 338 | 0.0 | 2.0 | 0.00 | 0.44 | 0.44 | 95 | 1012.2 |
| 20260506192404 | 62 | 343 | 1.0 | 2.0 | 0.00 | 0.44 | 0.44 | 95 | 1012.2 |
| 20260506192003 | 62 | 349 | 1.0 | 2.0 | 0.00 | 0.44 | 0.44 | 95 | 1012.2 |
| 20260506191603 | 62 | 343 | 1.0 | 2.0 | 0.00 | 0.44 | 0.44 | 95 | 1012.0 |
| 20260506191204 | 62 | 357 | 0.0 | 2.0 | 0.00 | 0.44 | 0.44 | 95 | 1012.1 |
| 20260506191015 | 62 | 344 | 0.0 | 2.0 | 0.00 | 0.44 | 0.44 | 95 | 1011.9 |
| 20260506190403 | 62 | 338 | 1.0 | 2.0 | 0.00 | 0.44 | 0.44 | 95 | 1012.0 |
| 20260506190009 | 63 | 344 | 1.0 | 2.0 | 0.00 | 0.44 | 0.44 | 95 | 1012.0 |
| 20260506185603 | 63 | 342 | 0.0 | 2.0 | 0.00 | 0.44 | 0.44 | 94 | 1011.9 |
| 20260506185203 | 63 | 356 | 0.0 | 4.0 | 0.00 | 0.44 | 0.44 | 94 | 1011.9 |
| 20260506184804 | 63 | 5 | 0.0 | 4.0 | 0.00 | 0.44 | 0.44 | 94 | 1011.8 |
| 20260506184404 | 63 | 12 | 2.0 | 4.0 | 0.00 | 0.44 | 0.44 | 94 | 1011.7 |
| 20260506184004 | 63 | 7 | 0.0 | 4.0 | 0.00 | 0.44 | 0.44 | 94 | 1011.7 |
| 20260506183603 | 63 | 14 | 1.0 | 4.0 | 0.00 | 0.44 | 0.44 | 93 | 1011.8 |
| 20260506183203 | 63 | 20 | 2.0 | 4.0 | 0.00 | 0.44 | 0.44 | 93 | 1011.6 |
| 20260506183014 | 63 | 18 | 2.0 | 4.0 | 0.00 | 0.44 | 0.44 | 93 | 1011.7 |
| 20260506182403 | 63 | 346 | 2.0 | 4.0 | 0.00 | 0.44 | 0.44 | 93 | 1011.5 |
| 20260506182218 | 63 | 326 | 3.0 | 4.0 | 0.00 | 0.44 | 0.44 | 93 | 1011.5 |
| 20260506181817 | 63 | 307 | 0.0 | 4.0 | 0.00 | 0.44 | 0.44 | 94 | 1011.7 |
| 20260506181203 | 63 | 309 | 0.0 | 4.0 | 0.00 | 0.44 | 0.44 | 94 | 1011.4 |
| 20260506180803 | 63 | 342 | 1.0 | 4.0 | 0.00 | 0.44 | 0.44 | 94 | 1011.6 |
| 20260506180404 | 63 | 24 | 2.0 | 4.0 | 0.00 | 0.44 | 0.44 | 94 | 1011.3 |
| 20260506180005 | 63 | 49 | 2.0 | 4.0 | 0.00 | 0.44 | 0.44 | 93 | 1011.1 |
| 20260506175814 | 63 | 53 | 1.0 | 2.0 | 0.00 | 0.44 | 0.44 | 93 | 1011.2 |
| 20260506175418 | 63 | 90 | 0.0 | 2.0 | 0.00 | 0.44 | 0.44 | 93 | 1011.1 |
| 20260506174804 | 63 | 92 | 0.0 | 4.0 | 0.00 | 0.44 | 0.44 | 92 | 1011.4 |
| 20260506174404 | 63 | 89 | 0.0 | 6.0 | 0.00 | 0.44 | 0.44 | 92 | 1011.2 |
| 20260506174003 | 64 | 78 | 2.0 | 6.0 | 0.00 | 0.44 | 0.44 | 92 | 1011.3 |
| 20260506173603 | 64 | 55 | 2.0 | 4.0 | 0.00 | 0.44 | 0.44 | 91 | 1011.3 |
| 20260506173203 | 64 | 29 | 1.0 | 2.0 | 0.00 | 0.44 | 0.44 | 91 | 1011.3 |
| 20260506172804 | 64 | 44 | 0.0 | 2.0 | 0.00 | 0.44 | 0.44 | 91 | 1011.3 |
| 20260506172403 | 64 | 61 | 2.0 | 2.0 | 0.00 | 0.44 | 0.44 | 91 | 1011.4 |
| 20260506172003 | 64 | 35 | 1.0 | 4.0 | 0.00 | 0.44 | 0.44 | 91 | 1011.6 |
| 20260506171603 | 64 | 18 | 0.0 | 4.0 | 0.00 | 0.44 | 0.44 | 91 | 1011.3 |
| 20260506171203 | 64 | 18 | 0.0 | 4.0 | 0.00 | 0.44 | 0.44 | 91 | 1011.2 |
| 20260506170804 | 64 | 58 | 0.0 | 2.0 | 0.00 | 0.44 | 0.44 | 91 | 1011.2 |
| 20260506170404 | 64 | 51 | 0.0 | 2.0 | 0.00 | 0.44 | 0.44 | 91 | 1011.1 |
| 20260506170215 | 64 | 52 | 1.0 | 2.0 | 0.00 | 0.44 | 0.44 | 91 | 1011.1 |
| 20260506165604 | 64 | 1 | 1.0 | 2.0 | 0.00 | 0.44 | 0.44 | 90 | 1011.0 |
| 20260506165204 | 64 | 348 | 0.0 | 2.0 | 0.00 | 0.44 | 0.44 | 90 | 1011.1 |
| 20260506164804 | 64 | 346 | 0.0 | 2.0 | 0.00 | 0.44 | 0.44 | 90 | 1011.1 |
| 20260506164618 | 64 | 354 | 2.0 | 2.0 | 0.00 | 0.44 | 0.44 | 90 | 1011.0 |
| 20260506164003 | 65 | 33 | 1.0 | 2.0 | 0.00 | 0.44 | 0.44 | 90 | 1011.2 |
| 20260506163603 | 64 | 87 | 1.0 | 2.0 | 0.00 | 0.44 | 0.44 | 90 | 1011.3 |
| 20260506163203 | 64 | 89 | 0.0 | 4.0 | 0.00 | 0.44 | 0.44 | 90 | 1011.2 |
| 20260506162803 | 64 | 87 | 0.0 | 4.0 | 0.00 | 0.44 | 0.44 | 90 | 1011.2 |
| 20260506162404 | 64 | 83 | 2.0 | 6.0 | 0.00 | 0.44 | 0.44 | 90 | 1011.1 |
| 20260506162214 | 64 | 82 | 2.0 | 6.0 | 0.00 | 0.44 | 0.44 | 90 | 1011.1 |
| 20260506161604 | 64 | 85 | 3.0 | 6.0 | 0.00 | 0.44 | 0.44 | 89 | 1011.3 |
| 20260506161203 | 64 | 89 | 2.0 | 6.0 | 0.00 | 0.44 | 0.44 | 88 | 1011.4 |
| 20260506161017 | 64 | 90 | 2.0 | 6.0 | 0.00 | 0.44 | 0.44 | 88 | 1011.5 |
| 20260506160403 | 65 | 88 | 2.0 | 4.0 | 0.00 | 0.44 | 0.44 | 88 | 1011.6 |
| 20260506160004 | 65 | 81 | 2.0 | 4.0 | 0.00 | 0.44 | 0.44 | 87 | 1011.2 |
| 20260506155604 | 66 | 80 | 1.0 | 4.0 | 0.00 | 0.44 | 0.44 | 87 | 1011.3 |
| 20260506155203 | 66 | 93 | 1.0 | 4.0 | 0.00 | 0.44 | 0.44 | 87 | 1011.6 |
| 20260506154804 | 67 | 88 | 0.0 | 4.0 | 0.00 | 0.44 | 0.44 | 86 | 1011.5 |
| 20260506154404 | 67 | 87 | 2.0 | 6.0 | 0.00 | 0.44 | 0.44 | 87 | 1011.4 |
| 20260506154217 | 66 | 89 | 0.0 | 6.0 | 0.00 | 0.44 | 0.44 | 89 | 1011.2 |
| 20260506153603 | 65 | 98 | 2.0 | 6.0 | 0.00 | 0.44 | 0.44 | 90 | 1011.4 |
| 20260506153204 | 65 | 97 | 1.0 | 6.0 | 0.00 | 0.44 | 0.44 | 90 | 1011.2 |
| 20260506152804 | 65 | 91 | 2.0 | 6.0 | 0.00 | 0.44 | 0.44 | 91 | 1011.2 |
| 20260506152403 | 64 | 91 | 2.0 | 6.0 | 0.00 | 0.44 | 0.44 | 92 | 1011.2 |
| 20260506152004 | 64 | 83 | 2.0 | 4.0 | 0.00 | 0.44 | 0.44 | 92 | 1011.1 |
| 20260506151603 | 64 | 82 | 2.0 | 6.0 | 0.00 | 0.44 | 0.44 | 92 | 1011.4 |
| 20260506151204 | 64 | 86 | 2.0 | 6.0 | 0.00 | 0.44 | 0.44 | 92 | 1011.3 |
| 20260506150803 | 64 | 82 | 2.0 | 6.0 | 0.00 | 0.44 | 0.44 | 91 | 1011.2 |
| 20260506150403 | 64 | 75 | 2.0 | 6.0 | 0.00 | 0.44 | 0.44 | 90 | 1011.4 |
| 20260506150004 | 64 | 81 | 1.0 | 6.0 | 0.00 | 0.44 | 0.44 | 90 | 1011.4 |
| 20260506145603 | 64 | 86 | 2.0 | 6.0 | 0.00 | 0.44 | 0.44 | 88 | 1011.4 |
| 20260506145204 | 64 | 86 | 1.0 | 6.0 | 0.00 | 0.44 | 0.44 | 89 | 1011.4 |
| 20260506144804 | 64 | 76 | 4.0 | 6.0 | 0.00 | 0.44 | 0.44 | 87 | 1011.5 |
| 20260506144404 | 64 | 58 | 0.0 | 4.0 | 0.00 | 0.44 | 0.44 | 88 | 1011.4 |
| 20260506144003 | 64 | 56 | 2.0 | 6.0 | 0.00 | 0.44 | 0.44 | 88 | 1011.4 |
| 20260506143817 | 63 | 45 | 0.0 | 6.0 | 0.00 | 0.44 | 0.44 | 89 | 1011.6 |
| 20260506143203 | 63 | 23 | 1.0 | 6.0 | 0.00 | 0.44 | 0.44 | 92 | 1011.6 |
| 20260506142803 | 63 | 55 | 0.0 | 7.0 | 0.00 | 0.44 | 0.44 | 93 | 1011.5 |
| 20260506142404 | 62 | 72 | 3.0 | 8.0 | 0.00 | 0.44 | 0.44 | 92 | 1011.4 |
| 20260506142003 | 62 | 69 | 2.0 | 8.0 | 0.00 | 0.44 | 0.44 | 93 | 1011.3 |
| 20260506141603 | 63 | 60 | 2.0 | 7.0 | 0.00 | 0.44 | 0.44 | 94 | 1011.3 |
| 20260506141203 | 63 | 53 | 2.0 | 7.0 | 0.00 | 0.44 | 0.44 | 97 | 1011.5 |
| 20260506140803 | 63 | 59 | 2.0 | 6.0 | 0.01 | 0.44 | 0.44 | 97 | 1011.5 |
| 20260506140403 | 63 | 72 | 2.0 | 6.0 | 0.04 | 0.44 | 0.44 | 98 | 1011.7 |
| 20260506140003 | 63 | 77 | 3.0 | 4.0 | 0.06 | 0.44 | 0.44 | 98 | 1011.3 |
| 20260506135603 | 62 | 61 | 2.0 | 4.0 | 0.12 | 0.44 | 0.44 | 98 | 1011.5 |
| 20260506135203 | 62 | 46 | 1.0 | 4.0 | 0.18 | 0.44 | 0.44 | 99 | 1011.5 |
| 20260506134804 | 63 | 50 | 2.0 | 4.0 | 0.22 | 0.44 | 0.44 | 99 | 1011.5 |
| 20260506134404 | 63 | 38 | 1.0 | 7.0 | 0.24 | 0.44 | 0.44 | 99 | 1011.3 |
| 20260506134004 | 62 | 39 | 2.0 | 7.0 | 0.24 | 0.44 | 0.44 | 99 | 1011.4 |
| 20260506133813 | 62 | 36 | 2.0 | 7.0 | 0.24 | 0.44 | 0.44 | 99 | 1011.7 |
| 20260506133203 | 63 | 24 | 0.0 | 4.0 | 0.25 | 0.44 | 0.44 | 99 | 1011.8 |
| 20260506132803 | 62 | 28 | 2.0 | 4.0 | 0.25 | 0.44 | 0.44 | 99 | 1011.7 |
| 20260506132403 | 62 | 38 | 2.0 | 4.0 | 0.25 | 0.44 | 0.44 | 99 | 1011.9 |
| 20260506132003 | 62 | 45 | 2.0 | 4.0 | 0.25 | 0.44 | 0.44 | 99 | 1012.0 |
| 20260506131603 | 62 | 44 | 2.0 | 4.0 | 0.25 | 0.44 | 0.44 | 99 | 1011.9 |
| 20260506131203 | 62 | 50 | 2.0 | 4.0 | 0.25 | 0.44 | 0.44 | 99 | 1011.9 |
| 20260506130803 | 62 | 71 | 1.0 | 2.0 | 0.24 | 0.43 | 0.43 | 98 | 1012.0 |
| 20260506130403 | 62 | 216 | 0.0 | 2.0 | 0.21 | 0.40 | 0.40 | 98 | 1012.1 |
| 20260506130005 | 62 | 259 | 0.0 | 2.0 | 0.19 | 0.38 | 0.38 | 98 | 1012.1 |
| 20260506125603 | 62 | 254 | 0.0 | 2.0 | 0.13 | 0.32 | 0.32 | 97 | 1012.2 |
| 20260506125203 | 63 | 70 | 0.0 | 2.0 | 0.07 | 0.26 | 0.26 | 96 | 1012.3 |
| 20260506124803 | 63 | 84 | 0.0 | 2.0 | 0.02 | 0.21 | 0.21 | 96 | 1012.1 |
| 20260506124403 | 63 | 88 | 1.0 | 2.0 | 0.01 | 0.20 | 0.20 | 95 | 1012.2 |
| 20260506124214 | 63 | 85 | 0.0 | 2.0 | 0.01 | 0.20 | 0.20 | 95 | 1012.1 |
| 20260506123603 | 63 | 68 | 1.0 | 4.0 | 0.00 | 0.19 | 0.19 | 94 | 1012.1 |
| 20260506123204 | 63 | 59 | 1.0 | 6.0 | 0.00 | 0.19 | 0.19 | 93 | 1011.8 |
| 20260506122803 | 64 | 44 | 1.0 | 6.0 | 0.00 | 0.19 | 0.19 | 93 | 1012.2 |
| 20260506122403 | 64 | 51 | 0.0 | 6.0 | 0.00 | 0.19 | 0.19 | 93 | 1011.9 |
| 20260506122003 | 64 | 57 | 2.0 | 4.0 | 0.00 | 0.19 | 0.19 | 94 | 1011.8 |
| 20260506121604 | 63 | 58 | 2.0 | 4.0 | 0.00 | 0.19 | 0.19 | 94 | 1012.0 |
| 20260506121415 | 63 | 62 | 2.0 | 4.0 | 0.00 | 0.19 | 0.19 | 94 | 1012.0 |
| 20260506120804 | 64 | 63 | 2.0 | 4.0 | 0.00 | 0.19 | 0.19 | 93 | 1012.2 |
| 20260506120403 | 64 | 74 | 1.0 | 7.0 | 0.00 | 0.19 | 0.19 | 93 | 1012.2 |
| 20260506120213 | 63 | 77 | 1.0 | 7.0 | 0.00 | 0.19 | 0.19 | 93 | 1012.2 |
| 20260506115603 | 63 | 91 | 1.0 | 7.0 | 0.00 | 0.19 | 0.19 | 92 | 1012.2 |
| 20260506115204 | 64 | 95 | 2.0 | 6.0 | 0.00 | 0.19 | 0.19 | 91 | 1012.3 |
| 20260506114803 | 64 | 92 | 3.0 | 6.0 | 0.00 | 0.19 | 0.19 | 91 | 1012.2 |
| 20260506114404 | 64 | 97 | 3.0 | 7.0 | 0.00 | 0.19 | 0.19 | 90 | 1012.4 |
| 20260506114003 | 64 | 98 | 1.0 | 7.0 | 0.00 | 0.19 | 0.19 | 90 | 1012.3 |
| 20260506113603 | 64 | 95 | 3.0 | 7.0 | 0.00 | 0.19 | 0.19 | 89 | 1012.3 |
| 20260506113204 | 64 | 92 | 2.0 | 7.0 | 0.00 | 0.19 | 0.19 | 89 | 1012.6 |
| 20260506112803 | 65 | 83 | 2.0 | 6.0 | 0.00 | 0.19 | 0.19 | 88 | 1012.5 |
| 20260506112403 | 64 | 83 | 2.0 | 7.0 | 0.00 | 0.19 | 0.19 | 89 | 1012.6 |
| 20260506112217 | 65 | 75 | 4.0 | 7.0 | 0.00 | 0.19 | 0.19 | 88 | 1012.6 |
| 20260506111816 | 64 | 69 | 1.0 | 7.0 | 0.00 | 0.19 | 0.19 | 89 | 1012.8 |
| 20260506111204 | 65 | 74 | 2.0 | 4.0 | 0.00 | 0.19 | 0.19 | 88 | 1012.5 |
| 20260506110803 | 65 | 77 | 1.0 | 6.0 | 0.00 | 0.19 | 0.19 | 89 | 1012.7 |
| 20260506110403 | 64 | 79 | 1.0 | 6.0 | 0.00 | 0.19 | 0.19 | 90 | 1012.6 |
| 20260506110004 | 64 | 78 | 3.0 | 6.0 | 0.00 | 0.19 | 0.19 | 90 | 1012.9 |
| 20260506105603 | 63 | 81 | 3.0 | 6.0 | 0.00 | 0.19 | 0.19 | 92 | 1012.7 |
| 20260506105204 | 62 | 86 | 2.0 | 4.0 | 0.00 | 0.19 | 0.19 | 93 | 1012.9 |
| 20260506104804 | 62 | 80 | 2.0 | 6.0 | 0.00 | 0.19 | 0.19 | 95 | 1013.0 |
| 20260506104616 | 62 | 81 | 2.0 | 6.0 | 0.00 | 0.19 | 0.19 | 95 | 1012.8 |
| 20260506104004 | 62 | 83 | 1.0 | 7.0 | 0.00 | 0.19 | 0.19 | 95 | 1013.0 |
| 20260506103603 | 62 | 79 | 1.0 | 7.0 | 0.00 | 0.20 | 0.19 | 94 | 1013.0 |
| 20260506103204 | 62 | 73 | 4.0 | 7.0 | 0.01 | 0.20 | 0.19 | 93 | 1012.8 |
| 20260506102803 | 62 | 57 | 1.0 | 4.0 | 0.01 | 0.20 | 0.19 | 93 | 1012.7 |
| 20260506102404 | 62 | 59 | 2.0 | 4.0 | 0.01 | 0.20 | 0.19 | 93 | 1013.0 |
| 20260506102004 | 61 | 70 | 1.0 | 4.0 | 0.02 | 0.20 | 0.19 | 95 | 1013.0 |
| 20260506101604 | 61 | 81 | 2.0 | 4.0 | 0.02 | 0.20 | 0.19 | 95 | 1013.1 |
| 20260506101203 | 61 | 91 | 0.0 | 4.0 | 0.04 | 0.20 | 0.19 | 96 | 1013.3 |
| 20260506100803 | 61 | 94 | 2.0 | 4.0 | 0.05 | 0.20 | 0.19 | 95 | 1013.2 |
| 20260506100404 | 61 | 92 | 0.0 | 4.0 | 0.05 | 0.20 | 0.19 | 97 | 1013.2 |
| 20260506095815 | 61 | 81 | 1.0 | 4.0 | 0.05 | 0.20 | 0.19 | 97 | 1009.5 |
| 20260506095203 | 61 | 86 | 2.0 | 4.0 | 0.05 | 0.20 | 0.19 | 97 | 1009.4 |
| 20260506094804 | 61 | 90 | 0.0 | 4.0 | 0.05 | 0.20 | 0.19 | 98 | 1009.4 |
| 20260506094403 | 61 | 99 | 2.0 | 4.0 | 0.05 | 0.20 | 0.19 | 98 | 1009.5 |
| 20260506094004 | 61 | 94 | 0.0 | 4.0 | 0.05 | 0.20 | 0.19 | 98 | 1009.6 |
| 20260506093603 | 61 | 94 | 2.0 | 4.0 | 0.05 | 0.20 | 0.19 | 97 | 1009.5 |
| 20260506093203 | 61 | 87 | 3.0 | 4.0 | 0.04 | 0.19 | 0.18 | 96 | 1009.6 |
| 20260506092803 | 61 | 91 | 1.0 | 4.0 | 0.04 | 0.19 | 0.18 | 96 | 1009.4 |
| 20260506092404 | 61 | 95 | 3.0 | 4.0 | 0.04 | 0.19 | 0.18 | 95 | 1009.7 |
| 20260506092004 | 61 | 95 | 3.0 | 4.0 | 0.02 | 0.18 | 0.17 | 95 | 1009.6 |
| 20260506091603 | 61 | 92 | 2.0 | 4.0 | 0.02 | 0.18 | 0.17 | 94 | 1009.7 |
| 20260506091203 | 61 | 85 | 2.0 | 4.0 | 0.01 | 0.17 | 0.15 | 93 | 1009.5 |
| 20260506090804 | 62 | 81 | 0.0 | 4.0 | 0.00 | 0.17 | 0.14 | 93 | 1009.7 |
| 20260506090403 | 62 | 79 | 2.0 | 4.0 | 0.00 | 0.17 | 0.14 | 91 | 1009.6 |
| 20260506090004 | 63 | 69 | 1.0 | 2.0 | 0.00 | 0.18 | 0.14 | 91 | 1009.4 |
| 20260506085604 | 63 | 55 | 0.0 | 2.0 | 0.00 | 0.18 | 0.14 | 90 | 1009.2 |
| 20260506085203 | 63 | 59 | 0.0 | 2.0 | 0.00 | 0.19 | 0.14 | 89 | 1009.3 |
| 20260506084803 | 63 | 86 | 0.0 | 2.0 | 0.00 | 0.19 | 0.14 | 90 | 1009.2 |
| 20260506084404 | 64 | 98 | 0.0 | 2.0 | 0.00 | 0.20 | 0.14 | 89 | 1009.1 |
| 20260506084003 | 64 | 90 | 0.0 | 2.0 | 0.00 | 0.20 | 0.14 | 88 | 1009.1 |
| 20260506083603 | 63 | 90 | 0.0 | 2.0 | 0.00 | 0.20 | 0.14 | 90 | 1009.1 |
| 20260506083203 | 63 | 90 | 0.0 | 2.0 | 0.00 | 0.20 | 0.14 | 92 | 1009.1 |
| 20260506082803 | 62 | 90 | 0.0 | 2.0 | 0.00 | 0.20 | 0.14 | 90 | 1009.2 |
| 20260506082403 | 62 | 90 | 0.0 | 2.0 | 0.00 | 0.20 | 0.14 | 92 | 1009.3 |
| 20260506082003 | 62 | 90 | 1.0 | 2.0 | 0.00 | 0.20 | 0.14 | 93 | 1009.0 |
| 20260506081814 | 62 | 90 | 0.0 | 2.0 | 0.00 | 0.20 | 0.14 | 93 | 1009.1 |
| 20260506081413 | 62 | 0 | 0.0 | 0.0 | 0.00 | 0.20 | 0.14 | 92 | 1009.1 |
| 20260506080804 | 62 | 0 | 0.0 | 0.0 | 0.00 | 0.20 | 0.14 | 95 | 1009.1 |
| 20260506080403 | 61 | 90 | 0.0 | 2.0 | 0.00 | 0.20 | 0.14 | 98 | 1009.2 |
| 20260506073205 | 60 | 90 | 0.0 | 2.0 | 0.01 | 0.20 | 0.14 | 99 | 1009.5 |
| 20260506072803 | 60 | 90 | 0.0 | 2.0 | 0.01 | 0.20 | 0.14 | 99 | 1009.5 |
| 20260506072403 | 60 | 90 | 0.0 | 2.0 | 0.01 | 0.20 | 0.14 | 99 | 1009.4 |
| 20260506072003 | 60 | 90 | 1.0 | 2.0 | 0.01 | 0.20 | 0.14 | 99 | 1009.2 |
| 20260506071604 | 60 | 0 | 0.0 | 0.0 | 0.01 | 0.20 | 0.14 | 99 | 1009.3 |
| 20260506071204 | 60 | 0 | 0.0 | 0.0 | 0.01 | 0.20 | 0.14 | 99 | 1009.4 |
| 20260506070803 | 60 | 0 | 0.0 | 0.0 | 0.01 | 0.20 | 0.14 | 99 | 1009.3 |
| 20260506070404 | 59 | 0 | 0.0 | 0.0 | 0.01 | 0.20 | 0.14 | 99 | 1009.4 |
| 20260506062216 | 58 | 22 | 0.0 | 2.0 | 0.00 | 0.19 | 0.13 | 99 | 1009.2 |
| 20260506061603 | 58 | 0 | 0.0 | 0.0 | 0.00 | 0.19 | 0.13 | 99 | 1009.2 |
| 20260506061203 | 58 | 0 | 0.0 | 0.0 | 0.00 | 0.19 | 0.13 | 99 | 1009.2 |
| 20260506060803 | 58 | 90 | 0.0 | 2.0 | 0.00 | 0.19 | 0.13 | 99 | 1009.1 |
| 20260506060403 | 58 | 90 | 0.0 | 2.0 | 0.00 | 0.19 | 0.13 | 99 | 1009.3 |
| 20260506060218 | 57 | 90 | 0.0 | 2.0 | 0.00 | 0.19 | 0.13 | 99 | 1009.4 |
| 20260506051203 | 56 | 97 | 0.0 | 2.0 | 0.00 | 0.19 | 0.13 | 99 | 1009.5 |
| 20260506050803 | 56 | 110 | 1.0 | 2.0 | 0.00 | 0.19 | 0.13 | 99 | 1009.7 |
| 20260506050403 | 56 | 0 | 0.0 | 0.0 | 0.00 | 0.19 | 0.13 | 99 | 1009.7 |
| 20260506044803 | 56 | 0 | 0.0 | 0.0 | 0.00 | 0.19 | 0.13 | 99 | 1009.7 |
| 20260506044404 | 56 | 0 | 0.0 | 0.0 | 0.00 | 0.19 | 0.13 | 99 | 1009.5 |
| 20260506044004 | 56 | 0 | 0.0 | 0.0 | 0.01 | 0.19 | 0.13 | 99 | 1009.7 |
| 20260506043603 | 56 | 266 | 0.0 | 2.0 | 0.06 | 0.19 | 0.13 | 99 | 1009.6 |
| 20260506043204 | 56 | 267 | 0.0 | 2.0 | 0.07 | 0.19 | 0.13 | 99 | 1009.4 |
| 20260506042804 | 56 | 293 | 0.0 | 4.0 | 0.12 | 0.19 | 0.13 | 99 | 1009.2 |
| 20260506042403 | 56 | 324 | 0.0 | 4.0 | 0.13 | 0.19 | 0.13 | 99 | 1009.2 |
| 20260506042217 | 56 | 331 | 0.0 | 4.0 | 0.13 | 0.19 | 0.13 | 99 | 1009.1 |
| 20260506041603 | 56 | 350 | 2.0 | 4.0 | 0.13 | 0.19 | 0.13 | 99 | 1008.9 |
| 20260506041203 | 56 | 330 | 0.0 | 2.0 | 0.13 | 0.19 | 0.13 | 99 | 1009.1 |
| 20260506040803 | 56 | 285 | 0.0 | 4.0 | 0.13 | 0.19 | 0.13 | 99 | 1009.0 |
| 20260506040404 | 56 | 291 | 0.0 | 4.0 | 0.13 | 0.19 | 0.13 | 99 | 1009.3 |
| 20260506040003 | 56 | 332 | 1.0 | 4.0 | 0.13 | 0.19 | 0.13 | 99 | 1009.2 |
| 20260506035605 | 56 | 13 | 1.0 | 4.0 | 0.13 | 0.19 | 0.13 | 99 | 1009.3 |
| 20260506035203 | 56 | 10 | 2.0 | 4.0 | 0.13 | 0.19 | 0.13 | 99 | 1009.3 |
| 20260506034804 | 56 | 358 | 2.0 | 4.0 | 0.13 | 0.19 | 0.13 | 99 | 1009.2 |
| 20260506034403 | 56 | 354 | 1.0 | 2.0 | 0.13 | 0.19 | 0.13 | 99 | 1008.9 |
| 20260506034216 | 56 | 355 | 1.0 | 2.0 | 0.12 | 0.18 | 0.12 | 99 | 1009.3 |
| 20260506033604 | 56 | 40 | 0.0 | 2.0 | 0.07 | 0.13 | 0.07 | 99 | 1009.6 |
| 20260506033204 | 56 | 59 | 0.0 | 2.0 | 0.06 | 0.12 | 0.06 | 99 | 1009.3 |
| 20260506032804 | 56 | 119 | 0.0 | 2.0 | 0.01 | 0.07 | 0.01 | 99 | 1009.4 |
| 20260506032403 | 56 | 164 | 0.0 | 2.0 | 0.00 | 0.06 | 0.00 | 98 | 1009.6 |
| 20260506032003 | 56 | 253 | 0.0 | 2.0 | 0.00 | 0.06 | 0.00 | 98 | 1010.0 |
| 20260506031817 | 56 | 270 | 0.0 | 2.0 | 0.00 | 0.06 | 0.00 | 98 | 1009.9 |
| 20260506031204 | 56 | 270 | 1.0 | 2.0 | 0.00 | 0.06 | 0.00 | 98 | 1009.7 |
| 20260506031016 | 56 | 270 | 0.0 | 2.0 | 0.00 | 0.06 | 0.00 | 98 | 1009.7 |
| 20260506030404 | 56 | 0 | 0.0 | 0.0 | 0.00 | 0.06 | 0.00 | 98 | 1009.7 |
| 20260506030004 | 56 | 270 | 0.0 | 2.0 | 0.00 | 0.06 | 0.00 | 98 | 1009.8 |
| 20260506025603 | 56 | 270 | 0.0 | 2.0 | 0.00 | 0.06 | 0.00 | 98 | 1009.8 |
| 20260506025203 | 56 | 270 | 0.0 | 2.0 | 0.00 | 0.06 | 0.00 | 98 | 1009.7 |
| 20260506024803 | 56 | 270 | 0.0 | 2.0 | 0.00 | 0.06 | 0.00 | 98 | 1009.8 |
| 20260506024404 | 56 | 270 | 0.0 | 2.0 | 0.00 | 0.06 | 0.00 | 98 | 1009.8 |
| 20260506024005 | 56 | 283 | 0.0 | 2.0 | 0.00 | 0.06 | 0.00 | 98 | 1010.0 |
| 20260506023816 | 56 | 282 | 0.0 | 2.0 | 0.00 | 0.06 | 0.00 | 98 | 1009.9 |